Weather History for Pontiac, IL

Change the Weather History Date:

Friday, November 11, 2011

  Actual Average Record
Temperature  
Mean Temperature 39 °F -  
Max Temperature 48 °F 49 °F 76 °F (1911)
Min Temperature 30 °F 32 °F 15 °F (1950)
Degree Days  
Heating Degree Days 26    
Moisture  
Dew Point 30 °F    
Average Humidity 75    
Maximum Humidity 93    
Minimum Humidity 50    
Precipitation  
Precipitation 0.00 in - - ()
Sea Level Pressure  
Sea Level Pressure 29.97 in    
Wind  
Wind Speed 9 mph (SSW)    
Max Wind Speed 21 mph    
Max Gust Speed 28 mph    
Visibility 10 miles    
Events      
Averages and records for this station are not official NWS values.
T = Trace of Precipitation, MM = Missing Value Source: NWS Daily Summary

Daily Weather History Graph

Daily Weather History Graph

Search for Another Location

Airport:

Trip Planner

Search our weather history database for the weather conditions in past years. The results will help you decide how hot, cold, wet, or windy it might be!

Date:

Astronomy

Nov. 11, 2011 Rise Set
Actual Time 6:36 AM CST 4:39 PM CST
Civil Twilight 6:07 AM CST 5:08 PM CST
Nautical Twilight 5:34 AM CST 5:41 PM CST
Astronomical Twilight 5:02 AM CST 6:14 PM CST
Moon 5:07 PM CST (11/11) 7:25 AM CST (11/11)
Length of Visible Light 11h 01m
Length of Day
10h 03m
Full, 99% of the Moon is Illuminated
Nov 11
Full
Nov 18
Last Quarter
Nov 25
New
Dec 2
First Quarter
Dec 10
Full

Hourly Weather History & Observations

Time (CST) Temp. Windchill Dew Point Humidity Pressure Visibility Wind Dir Wind Speed Gust Speed Precip Events Conditions
12:15 AM 32.0 °F 25.6 °F 28.4 °F 87% 30.07 in 10.0 mi WSW 6.9 mph - N/A   Clear
12:35 AM 30.2 °F 22.6 °F 28.4 °F 93% 30.07 in 10.0 mi WSW 8.1 mph - N/A   Clear
12:55 AM 30.2 °F 22.6 °F 28.4 °F 93% 30.07 in 10.0 mi WSW 8.1 mph - N/A   Clear
1:15 AM 30.2 °F 22.6 °F 28.4 °F 93% 30.07 in 10.0 mi WSW 8.1 mph - N/A   Clear
1:35 AM 30.2 °F 22.6 °F 28.4 °F 93% 30.07 in 10.0 mi WSW 8.1 mph - N/A   Clear
1:55 AM 30.2 °F 23.4 °F 28.4 °F 93% 30.06 in 10.0 mi WSW 6.9 mph - N/A   Clear
2:15 AM 30.2 °F 23.4 °F 28.4 °F 93% 30.06 in 10.0 mi WSW 6.9 mph - N/A   Clear
2:35 AM 30.2 °F 25.4 °F 28.4 °F 93% 30.05 in 10.0 mi WSW 4.6 mph - N/A   Clear
2:55 AM 30.2 °F 23.4 °F 28.4 °F 93% 30.04 in 10.0 mi WSW 6.9 mph - N/A   Clear
3:15 AM 30.2 °F 22.6 °F 28.4 °F 93% 30.05 in 10.0 mi WSW 8.1 mph - N/A   Clear
3:35 AM 30.2 °F 22.6 °F 28.4 °F 93% 30.05 in 10.0 mi WSW 8.1 mph - N/A   Clear
3:55 AM 30.2 °F 22.6 °F 28.4 °F 93% 30.04 in 10.0 mi WSW 8.1 mph - N/A   Clear
4:15 AM 30.2 °F 22.6 °F 26.6 °F 86% 30.05 in 10.0 mi WSW 8.1 mph - N/A   Clear
4:35 AM 30.2 °F 24.3 °F 28.4 °F 93% 30.05 in 10.0 mi WSW 5.8 mph - N/A   Clear
4:55 AM 30.2 °F 26.7 °F 28.4 °F 93% 30.04 in 10.0 mi SW 3.5 mph - N/A   Clear
5:15 AM 30.2 °F 25.4 °F 26.6 °F 86% 30.04 in 10.0 mi SW 4.6 mph - N/A   Clear
5:35 AM 30.2 °F 25.4 °F 26.6 °F 86% 30.04 in 10.0 mi SW 4.6 mph - N/A   Clear
5:55 AM 30.2 °F 26.7 °F 26.6 °F 86% 30.04 in 10.0 mi SSW 3.5 mph - N/A   Clear
6:15 AM 30.2 °F 24.3 °F 26.6 °F 86% 30.04 in 10.0 mi SSW 5.8 mph - N/A   Clear
6:35 AM 30.2 °F 24.3 °F 26.6 °F 86% 30.03 in 10.0 mi SSW 5.8 mph - N/A   Scattered Clouds
6:55 AM 30.2 °F 25.4 °F 28.4 °F 93% 30.03 in 10.0 mi South 4.6 mph - N/A   Mostly Cloudy
7:15 AM 32.0 °F 27.5 °F 28.4 °F 87% 30.03 in 10.0 mi South 4.6 mph - N/A   Mostly Cloudy
7:35 AM 33.8 °F 28.6 °F 28.4 °F 81% 30.03 in 10.0 mi South 5.8 mph - N/A   Scattered Clouds
7:55 AM 33.8 °F 28.6 °F 30.2 °F 87% 30.03 in 10.0 mi South 5.8 mph - N/A   Scattered Clouds
8:15 AM 33.8 °F 27.7 °F 30.2 °F 87% 30.03 in 10.0 mi SSW 6.9 mph - N/A   Clear
8:35 AM 35.6 °F 29.2 °F 30.2 °F 81% 30.02 in 10.0 mi SSW 8.1 mph - N/A   Clear
8:55 AM 37.4 °F 31.4 °F 30.2 °F 75% 30.02 in 10.0 mi SSW 8.1 mph - N/A   Mostly Cloudy
9:15 AM 37.4 °F 30.8 °F 30.2 °F 75% 30.03 in 10.0 mi SSW 9.2 mph - N/A   Mostly Cloudy
9:35 AM 37.4 °F 29.3 °F 30.2 °F 75% 30.03 in 10.0 mi SSW 12.7 mph - N/A   Mostly Cloudy
9:55 AM 39.2 °F 32.0 °F 30.2 °F 70% 30.01 in 10.0 mi SSW 11.5 mph - N/A   Scattered Clouds
10:15 AM 39.2 °F 31.2 °F 30.2 °F 70% 30.01 in 10.0 mi SSW 13.8 mph - N/A   Clear
10:35 AM 42.8 °F 35.4 °F 30.2 °F 61% 30.00 in 10.0 mi SSW 15.0 mph - N/A   Clear
10:55 AM 42.8 °F 35.4 °F 30.2 °F 61% 29.99 in 10.0 mi SSW 15.0 mph - N/A   Clear
11:15 AM 42.8 °F 34.8 °F 30.2 °F 61% 29.98 in 10.0 mi South 17.3 mph 21.9 mph N/A   Clear
11:35 AM 44.6 °F 37.8 °F 32.0 °F 61% 29.97 in 10.0 mi South 15.0 mph - N/A   Clear
11:55 AM 44.6 °F 36.6 °F 30.2 °F 57% 29.94 in 10.0 mi South 19.6 mph - N/A   Clear
12:15 PM 44.6 °F 38.1 °F 30.2 °F 57% 29.94 in 10.0 mi South 13.8 mph - N/A   Clear
12:35 PM 46.4 °F 40.7 °F 30.2 °F 53% 29.91 in 10.0 mi South 12.7 mph - N/A   Clear
12:55 PM 48.2 °F - 30.2 °F 50% 29.89 in 10.0 mi South 15.0 mph 20.7 mph N/A   Clear
1:15 PM 48.2 °F - 30.2 °F 50% 29.87 in 10.0 mi South 18.4 mph - N/A   Clear
1:35 PM 48.2 °F - 30.2 °F 50% 29.87 in 10.0 mi South 18.4 mph 23.0 mph N/A   Clear
1:55 PM 48.2 °F - 32.0 °F 54% 29.85 in 10.0 mi South 19.6 mph 25.3 mph N/A   Clear
2:35 PM 48.2 °F - 32.0 °F 54% 29.82 in 10.0 mi SSE 16.1 mph 23.0 mph N/A   Clear
2:55 PM 48.2 °F - 32.0 °F 54% 29.81 in 10.0 mi South 20.7 mph 27.6 mph N/A   Clear
3:15 PM 48.2 °F - 32.0 °F 54% 29.80 in 10.0 mi SSE 19.6 mph 24.2 mph N/A   Clear
3:35 PM 48.2 °F - 33.8 °F 58% 29.80 in 10.0 mi SSE 18.4 mph 24.2 mph N/A   Clear
3:55 PM 48.2 °F - 33.8 °F 58% 29.82 in 10.0 mi South 19.6 mph 25.3 mph N/A   Clear
4:15 PM 46.4 °F 40.1 °F 33.8 °F 62% 29.83 in 10.0 mi South 15.0 mph - N/A   Clear
4:35 PM 46.4 °F 41.1 °F 33.8 °F 62% 29.84 in 10.0 mi South 11.5 mph 17.3 mph N/A   Clear
4:55 PM 44.6 °F 38.4 °F 33.8 °F 66% 29.83 in 10.0 mi South 12.7 mph - N/A   Clear
5:15 PM 42.8 °F 37.0 °F 33.8 °F 70% 29.83 in 10.0 mi South 10.4 mph - N/A   Clear
5:35 PM 42.8 °F 38.0 °F 33.8 °F 70% 29.82 in 10.0 mi SSE 8.1 mph - N/A   Clear
5:55 PM 42.8 °F 38.0 °F 33.8 °F 70% 29.82 in 10.0 mi SSE 8.1 mph - N/A   Clear
6:15 PM 41.0 °F 34.7 °F 33.8 °F 76% 29.81 in 10.0 mi SSE 10.4 mph - N/A   Clear
6:35 PM 41.0 °F 34.7 °F 33.8 °F 76% 29.81 in 10.0 mi SSE 10.4 mph - N/A   Clear
6:55 PM 41.0 °F 34.3 °F 33.8 °F 76% 29.80 in 10.0 mi SSE 11.5 mph - N/A   Clear
7:15 PM 41.0 °F 33.9 °F 33.8 °F 76% 29.79 in 10.0 mi SSE 12.7 mph - N/A   Clear
7:35 PM 41.0 °F 33.9 °F 33.8 °F 76% 29.77 in 10.0 mi SSE 12.7 mph - N/A   Clear
7:55 PM 39.2 °F 33.0 °F 33.8 °F 81% 29.77 in 10.0 mi South 9.2 mph - N/A   Clear
8:15 PM 39.2 °F 32.5 °F 33.8 °F 81% 29.77 in 10.0 mi South 10.4 mph - N/A   Clear
8:35 PM 39.2 °F 34.2 °F 33.8 °F 81% 29.77 in 10.0 mi South 6.9 mph - N/A   Clear
8:55 PM 39.2 °F 33.0 °F 33.8 °F 81% 29.77 in 10.0 mi South 9.2 mph - N/A   Clear
9:15 PM 41.0 °F 36.4 °F 33.8 °F 76% 29.77 in 10.0 mi SSW 6.9 mph - N/A   Clear
9:35 PM 41.0 °F 35.8 °F 33.8 °F 76% 29.77 in 10.0 mi SSW 8.1 mph - N/A   Clear
9:55 PM 42.8 °F 37.5 °F 35.6 °F 76% 29.77 in 10.0 mi SSW 9.2 mph - N/A   Clear
10:15 PM 41.0 °F 35.2 °F 35.6 °F 81% 29.77 in 10.0 mi SW 9.2 mph - N/A   Clear
10:35 PM 41.0 °F 35.2 °F 35.6 °F 81% 29.76 in 10.0 mi SW 9.2 mph - N/A   Clear
10:55 PM 41.0 °F 36.4 °F 35.6 °F 81% 29.77 in 10.0 mi SW 6.9 mph - N/A   Clear
11:15 PM 41.0 °F 37.1 °F 35.6 °F 81% 29.78 in 10.0 mi SW 5.8 mph - N/A   Clear
11:35 PM 41.0 °F 37.1 °F 35.6 °F 81% 29.78 in 10.0 mi SW 5.8 mph - N/A   Clear
11:55 PM 41.0 °F 37.1 °F 35.6 °F 81% 29.78 in 10.0 mi SW 5.8 mph - N/A   Clear